Regional Weather Roundup
Issued by NWS

Home | Current Version | Previous Version | Graphics & Text | Print | Product List | Glossary On
Versions: 1 2 3 4 5 6 7 8 9 10 11 12 13 14 15 16 17 18 19 20 21 22 23 24 25 26 27 28 29 30 31 32 33 34 35 36 37 38 39 40 41 42 43 44 45 46 47 48 49 50
000
ASUS43 KFSD 181302
RWRSD

WEATHER ROUNDUP FOR SOUTH DAKOTA
NATIONAL WEATHER SERVICE SIOUX FALLS SD
700 AM CST SAT NOV 18 2017

NOTE: "FAIR" INDICATES FEW OR NO CLOUDS BELOW 12,000 FEET WITH NO
SIGNIFICANT WEATHER AND/OR OBSTRUCTIONS TO VISIBILITY.


SDZ001>005-009-010-012>017-181400-
NORTHWEST AND NORTH CENTRAL SOUTH DAKOTA

CITY           SKY/WX    TMP DP  RH WIND       PRES   REMARKS
BUFFALO          N/A     26  21  81 NW9       29.98R WCI  17
FAITH            N/A     28  24  85 NW16      30.03R WCI  16
MOBRIDGE       MOCLDY    24  17  74 NW15      29.98R WCI  11
$$

SDZ012>016-024>037-041>051-057-063-072>074-181400-
SOUTHWEST AND SOUTH CENTRAL SOUTH DAKOTA

CITY           SKY/WX    TMP DP  RH WIND       PRES   REMARKS
RAPID CTY ARPT CLEAR     34  19  54 NW17      30.07R WCI  23
PIERRE         CLEAR     29  27  92 NW13      29.99R WCI  19
CUSTER         CLEAR     24  14  65 NW8       30.03R WCI  15
ELLSWORTH AFB  CLEAR     34  19  53 NW18      30.06R WCI  23
PHILIP         CLEAR     31  27  85 W13       30.04R WCI  21
PINE RIDGE     CLEAR     21  20  96 CALM      30.10R
SPEARFISH      MOCLDY    32  16  51 W16G25    30.07R WCI  21
WINNER         FAIR      34  29  82 W10       30.00R WCI  26
$$

SDZ004>011-016>023-039-040-181400-
NORTHEAST SOUTH DAKOTA

CITY           SKY/WX    TMP DP  RH WIND       PRES   REMARKS
ABERDEEN       CLOUDY    21  17  84 N9        29.97R WCI  11
WATERTOWN      PTCLDY    23  18  81 NW13      29.87R WCI  11
BROOKINGS      CLEAR     24  20  84 N5        29.86R WCI  18
SISSETON         N/A     23  18  81 NW14      29.92R WCI  11
$$

SDZ017-020-022-023-036>040-048>070-181400-
SOUTHEAST SOUTH DAKOTA

CITY           SKY/WX    TMP DP  RH WIND       PRES   REMARKS
SIOUX FALLS    MOCLDY    29  24  82 NW8       29.87R WCI  21
HURON          CLEAR     19  16  88 NW7       29.94R WCI  10
CHAMBERLAIN    CLEAR     34  33  94 NW9       29.97R WCI  27
MITCHELL       CLEAR     24  20  84 NW9       29.94R WCI  14
YANKTON        CLOUDY    33  24  69 NW14      29.90R WCI  23
$$

ABBREVIATIONS USED IN REMARKS
   TC - TEMPERATURE IN CELSIUS
  WCI - WIND CHILL INDEX
   HX - HEAT INDEX
  VSB - VISIBILITY




USA.gov is the U.S. government's official web portal to all federal, state and local government web resources and services.